Simultaneous Nadir Overpasses (SNOs) Predictions

Prediction of SNOs between GOES-15 and TERRA Satellite Orbit:

Table of predicted SNOs for the next 14.0 days since TLE Epoch: 3/2/2013
Index Date Time (GOES-15) GOES-15 Lat,Lon TERRA Lat,Lon Distance(km) Time Diff (sec)
1 03/03/2013 07:16:00 -0.04,-135.40 0.67,-131.94 392.62 80
2 03/03/2013 19:37:17 0.03,-135.36 0.39,-137.11 198.50 80
3 03/05/2013 19:27:49 0.03,-135.37 -0.22,-134.16 136.62 80
4 03/06/2013 07:49:15 -0.02,-135.41 -0.84,-139.37 449.15 80
5 03/07/2013 19:15:42 0.02,-135.37 -0.85,-131.22 471.02 80
6 03/08/2013 07:37:08 -0.02,-135.41 -0.22,-136.43 114.94 80
7 03/10/2013 07:22:21 -0.02,-135.41 0.37,-133.48 218.95 80
8 03/10/2013 19:43:38 0.02,-135.37 0.73,-138.65 373.30 80
9 03/12/2013 19:31:33 0.02,-135.36 0.07,-135.72 40.07 80
10 03/14/2013 19:22:08 0.02,-135.36 -0.55,-132.79 292.48 80
11 03/15/2013 07:43:33 -0.02,-135.40 -0.55,-137.99 293.55 80




NCC Satellite Simultaneous Nadir Overpasses (SNOs) Prediction Service
